This demonstration page uses our WeatherBlox Daily Observations layout. Learn more.

41.86663, -103.66717

Hourly Observations for January 26, 2020

Temp ( °F °C ) Dew Point ( °F °C ) Humidity (%) Winds ( mph kmh ) Pressure ( in mb ) Visibility ( mi km ) Precip ( " mm )
12:53 am 00:53 Mostly Cloudy 32 0 25 -3.9 75 75 NNE 5 7 30.01 1016 10 16.0934 0 0
1:53 am 01:53 Clear 29 -1.7 24 -4.4 82 82 N 3 6 30.03 1017 10 16.0934 0 0
2:53 am 02:53 Clear 26 -3.3 22 -5.6 84 84 WNW 5 7 30.05 1018 10 16.0934 0 0
3:53 am 03:53 Clear 26 -3.3 22 -5.6 84 84 NW 7 11 30.05 1018 10 16.0934 0 0
4:53 am 04:53 Cloudy 27 -2.8 24 -4.4 89 89 WNW 7 11 30.06 1018 10 16.0934 0 0
5:53 am 05:53 Clear 26 -3.3 23 -5 88 88 WNW 8 13 30.09 1019 10 16.0934 0 0
6:53 am 06:53 Clear 23 -5 21 -6.1 92 92 WNW 8 13 30.11 1020 10 16.0934 0 0
7:53 am 07:53 Sunny 27 -2.8 23 -5 85 85 NW 6 9 30.12 1020 10 16.0934 0 0
8:53 am 08:53 Mostly Cloudy 32 0 25 -3.9 75 75 WNW 6 9 30.11 1020 10 16.0934 0 0
9:53 am 09:53 Sunny 40 4.4 27 -2.8 60 60 WNW 9 15 30.09 1019 10 16.0934 0 0
10:53 am 10:53 Sunny 46 7.8 27 -2.8 47 47 WNW 12 19 30.06 1018 10 16.0934 0 0
11:53 am 11:53 Sunny 48 8.9 26 -3.3 42 42 WNW 13 20 30.03 1017 10 16.0934 0 0
12:53 pm 12:53 Sunny 51 10.6 25 -3.9 36 36 NW 12 19 29.99 1016 10 16.0934 0 0
1:53 pm 13:53 Sunny 52 11.1 25 -3.9 35 35 NNW 16 26 29.97 1015 10 16.0934 0 0
2:53 pm 14:53 Sunny 49 9.4 24 -4.4 38 38 NNW 13 20 29.99 1016 10 16.0934 0 0
3:53 pm 15:53 Sunny 48 8.9 25 -3.9 41 41 N 10 17 29.99 1016 10 16.0934 0 0
4:53 pm 16:53 Sunny 43 6.1 24 -4.4 47 47 NW 3 6 30 1016 10 16.0934 0 0
5:53 pm 17:53 Clear 37 2.8 23 -5 57 57 SW 3 6 30.03 1017 10 16.0934 0 0
6:53 pm 18:53 Clear 36 2.2 23 -5 59 59 NW 6 9 30.05 1018 10 16.0934 0 0
7:53 pm 19:53 Clear 29 -1.7 21 -6.1 72 72 Calm 30.06 1018 10 16.0934 0 0
8:53 pm 20:53 Clear 28 -2.2 21 -6.1 75 75 S 6 9 30.06 1018 10 16.0934 0 0
9:53 pm 21:53 Clear 27 -2.8 22 -5.6 81 81 NNW 3 6 30.04 1017 10 16.0934 0 0
10:53 pm 22:53 Clear 24 -4.4 21 -6.1 88 88 NNE 5 7 30.03 1017 10 16.0934 0 0
11:53 pm 23:53 Clear 23 -5 19 -7.2 85 85 Calm 30.03 1017 10 16.0934 0 0

Powered by AerisWeather